����,���ϕ���(m/s),���ϕ���,�ő�u�ԕ���(m/s),�ő啗��������,�C��(��),���x(%),10���Ԉړ��ώZ�J��(mm),1���Ԉړ��ώZ�J��(mm),���J��(mm),�݌v�J��(mm),����(���ώZ)(MJ/m2),����(���ώZ)(min),���n�C��(hPa),�C�ʋC��(hPa)
2019-11-04T00:00:00+09:00,1.1,�k��,2.6,�k�k��,13.1,95.5,0,0,0,0,5.35,62,1003.4,1017.4
2019-11-04T00:01:00+09:00,1.2,�k��,2.6,�k�k��,12.9,95.3,0,0,0,0,0,0,1003.4,1017.4
2019-11-04T00:02:00+09:00,1.2,���k��,2.3,��,12.8,94.8,0,0,0,0,0,0,1003.5,1017.5
2019-11-04T00:03:00+09:00,1.2,���k��,2.3,��,12.7,94.6,0,0,0,0,0,0,1003.5,1017.5
2019-11-04T00:04:00+09:00,1.3,���k��,2.3,��,12.7,94.6,0,0,0,0,0,0,1003.5,1017.5
2019-11-04T00:05:00+09:00,1.2,���k��,2.3,��,12.7,94.7,0,0,0,0,0,0,1003.5,1017.5
2019-11-04T00:06:00+09:00,1.2,���k��,2.3,��,12.7,94.8,0,0,0,0,0,0,1003.5,1017.5
2019-11-04T00:07:00+09:00,1.2,���k��,2.3,��,12.7,95.2,0,0,0,0,0,0,1003.5,1017.5
2019-11-04T00:08:00+09:00,1.3,���k��,2.4,���k��,12.6,95,0,0,0,0,0,0,1003.5,1017.5
2019-11-04T00:09:00+09:00,1.2,���k��,2.4,���k��,12.5,94.7,0,0,0,0,0,0,1003.5,1017.5
2019-11-04T00:10:00+09:00,1.1,���k��,2.4,���k��,12.5,94.7,0,0,0,0,0,0,1003.5,1017.5
2019-11-04T00:11:00+09:00,1,���k��,2.4,���k��,12.5,95.1,0,0,0,0,0,0,1003.5,1017.5
2019-11-04T00:12:00+09:00,1,���k��,2.4,���k��,12.5,95.3,0,0,0,0,0,0,1003.4,1017.4
2019-11-04T00:13:00+09:00,0.9,���k��,2.4,���k��,12.6,95.5,0,0,0,0,0,0,1003.4,1017.4
2019-11-04T00:14:00+09:00,0.9,���k��,2.4,���k��,12.6,95.5,0,0,0,0,0,0,1003.4,1017.4
2019-11-04T00:15:00+09:00,1,���k��,2.4,���k��,12.7,95.6,0,0,0,0,0,0,1003.3,1017.3
2019-11-04T00:16:00+09:00,1.1,�k��,2.5,�k��,12.6,95.4,0,0,0,0,0,0,1003.4,1017.4
2019-11-04T00:17:00+09:00,1.2,�k��,2.8,�k��,12.5,95.2,0,0,0,0,0,0,1003.4,1017.4
2019-11-04T00:18:00+09:00,1.2,�k��,2.8,�k��,12.4,95,0,0,0,0,0,0,1003.4,1017.4
2019-11-04T00:19:00+09:00,1.3,�k��,2.8,�k��,12.3,95,0,0,0,0,0,0,1003.4,1017.4
2019-11-04T00:20:00+09:00,1.4,�k��,2.8,�k��,12.3,95.2,0,0,0,0,0,0,1003.4,1017.4
2019-11-04T00:21:00+09:00,1.5,�k��,2.8,�k��,12.2,95.2,0,0,0,0,0,0,1003.4,1017.4
2019-11-04T00:22:00+09:00,1.5,�k��,2.8,�k��,12.2,95.3,0,0,0,0,0,0,1003.4,1017.4
2019-11-04T00:23:00+09:00,1.5,�k��,2.8,�k��,12.2,95.4,0,0,0,0,0,0,1003.3,1017.3
2019-11-04T00:24:00+09:00,1.5,�k��,2.8,�k��,12.1,95.4,0,0,0,0,0,0,1003.4,1017.4
2019-11-04T00:25:00+09:00,1.6,�k��,2.8,�k��,12.1,95.5,0,0,0,0,0,0,1003.4,1017.4
2019-11-04T00:26:00+09:00,1.5,�k��,2.8,�k��,12.1,95.6,0,0,0,0,0,0,1003.4,1017.4
2019-11-04T00:27:00+09:00,1.4,�k��,2.8,���k��,12,95.5,0,0,0,0,0,0,1003.4,1017.4
2019-11-04T00:28:00+09:00,1.5,�k�k��,2.5,�k��,12,95.6,0,0,0,0,0,0,1003.4,1017.4
2019-11-04T00:29:00+09:00,1.4,�k�k��,2.5,�k��,12,95.7,0,0,0,0,0,0,1003.4,1017.4
2019-11-04T00:30:00+09:00,1.4,�k�k��,2.5,�k��,11.9,95.7,0,0,0,0,0,0,1003.3,1017.3
2019-11-04T00:31:00+09:00,1.5,�k�k��,2.8,�k�k��,11.9,95.7,0,0,0,0,0,0,1003.3,1017.3
2019-11-04T00:32:00+09:00,1.6,�k�k��,2.8,�k�k��,12.1,95.9,0,0,0,0,0,0,1003.3,1017.3
2019-11-04T00:33:00+09:00,1.7,�k�k��,2.8,�k�k��,12.3,96.2,0,0,0,0,0,0,1003.3,1017.3
2019-11-04T00:34:00+09:00,1.8,�k�k��,2.8,�k�k��,12.1,96.2,0,0,0,0,0,0,1003.3,1017.3
2019-11-04T00:35:00+09:00,1.7,�k�k��,2.8,�k�k��,11.9,95.8,0,0,0,0,0,0,1003.3,1017.3
2019-11-04T00:36:00+09:00,1.8,�k�k��,2.8,�k�k��,12.1,95.7,0,0,0,0,0,0,1003.3,1017.3
2019-11-04T00:37:00+09:00,1.8,�k�k��,3.1,�k,12,95.8,0,0,0,0,0,0,1003.3,1017.3
2019-11-04T00:38:00+09:00,1.9,�k�k��,3.1,�k,12.2,95.9,0,0,0,0,0,0,1003.3,1017.3
2019-11-04T00:39:00+09:00,2,�k�k��,3.1,�k,12.2,96,0,0,0,0,0,0,1003.3,1017.3
2019-11-04T00:40:00+09:00,2.1,�k�k��,3.8,�k�k��,12.2,95.9,0,0,0,0,0,0,1003.3,1017.3
2019-11-04T00:41:00+09:00,2.2,�k�k��,3.8,�k�k��,12.3,95.8,0,0,0,0,0,0,1003.4,1017.4
2019-11-04T00:42:00+09:00,2.4,�k�k��,3.9,�k�k��,12.2,95.6,0,0,0,0,0,0,1003.4,1017.4
2019-11-04T00:43:00+09:00,2.5,�k�k��,4,�k��,12.1,95.4,0,0,0,0,0,0,1003.4,1017.4
2019-11-04T00:44:00+09:00,2.6,�k�k��,4,�k��,12.1,95.3,0,0,0,0,0,0,1003.4,1017.4
2019-11-04T00:45:00+09:00,2.7,�k��,4,�k��,12.1,95.4,0,0,0,0,0,0,1003.3,1017.3
2019-11-04T00:46:00+09:00,2.7,�k��,4,�k��,12.2,95.5,0,0,0,0,0,0,1003.4,1017.4
2019-11-04T00:47:00+09:00,2.8,�k��,4,�k��,12.2,95.5,0,0,0,0,0,0,1003.4,1017.4
2019-11-04T00:48:00+09:00,3,�k��,4.1,�k�k��,12.1,95.4,0,0,0,0,0,0,1003.4,1017.4
2019-11-04T00:49:00+09:00,3,�k��,4.1,�k�k��,12.2,95.5,0,0,0,0,0,0,1003.4,1017.4
2019-11-04T00:50:00+09:00,3,�k��,4.1,�k�k��,12.1,95.4,0,0,0,0,0,0,1003.4,1017.4
2019-11-04T00:51:00+09:00,2.9,�k�k��,4.1,�k�k��,12.1,95.3,0,0,0,0,0,0,1003.4,1017.4
2019-11-04T00:52:00+09:00,2.9,�k�k��,4.5,�k,12.2,95.4,0,0,0,0,0,0,1003.4,1017.4
2019-11-04T00:53:00+09:00,2.7,�k�k��,4.5,�k,12.2,95.5,0,0,0,0,0,0,1003.4,1017.4
2019-11-04T00:54:00+09:00,2.5,�k�k��,4.5,�k,12.2,95.4,0,0,0,0,0,0,1003.4,1017.4
2019-11-04T00:55:00+09:00,2.4,�k�k��,4.5,�k,12.2,95.3,0,0,0,0,0,0,1003.4,1017.4
2019-11-04T00:56:00+09:00,2.4,�k�k��,4.5,�k,12.3,95.3,0,0,0,0,0,0,1003.4,1017.4
2019-11-04T00:57:00+09:00,2.2,�k�k��,4.5,�k,12.2,95.1,0,0,0,0,0,0,1003.4,1017.4
2019-11-04T00:58:00+09:00,2.1,�k�k��,4.5,�k,12.1,94.8,0,0,0,0,0,0,1003.4,1017.4
2019-11-04T00:59:00+09:00,2.1,�k�k��,4.5,�k,12.1,94.6,0,0,0,0,0,0,1003.4,1017.4
2019-11-04T01:00:00+09:00,2,�k�k��,4.5,�k,12.2,95.1,0,0,0,0,0,0,1003.4,1017.4
2019-11-04T01:01:00+09:00,1.9,�k�k��,4.5,�k,12,94.8,0,0,0,0,0,0,1003.4,1017.4
2019-11-04T01:02:00+09:00,1.9,�k�k��,3.3,�k�k��,12,94.6,0,0,0,0,0,0,1003.4,1017.4
2019-11-04T01:03:00+09:00,2,�k�k��,3.5,�k�k��,12,94.8,0,0,0,0,0,0,1003.4,1017.4
2019-11-04T01:04:00+09:00,2.1,�k�k��,3.5,�k�k��,12,95.2,0,0,0,0,0,0,1003.4,1017.4
2019-11-04T01:05:00+09:00,2.1,�k�k��,3.6,�k�k��,11.9,95.2,0,0,0,0,0,0,1003.4,1017.4
2019-11-04T01:06:00+09:00,2.1,�k�k��,3.6,�k�k��,12,95.2,0,0,0,0,0,0,1003.5,1017.5
2019-11-04T01:07:00+09:00,2,�k�k��,3.6,�k�k��,12.1,95.5,0,0,0,0,0,0,1003.5,1017.5
2019-11-04T01:08:00+09:00,1.8,�k��,3.6,�k�k��,12.1,95.5,0,0,0,0,0,0,1003.5,1017.5
2019-11-04T01:09:00+09:00,1.7,�k�k��,3.6,�k�k��,12.1,95.5,0,0,0,0,0,0,1003.5,1017.5
2019-11-04T01:10:00+09:00,1.6,�k�k��,3.6,�k�k��,12.2,95.6,0,0,0,0,0,0,1003.5,1017.5
2019-11-04T01:11:00+09:00,1.6,�k�k��,3.7,�k�k��,12.4,95.8,0,0,0,0,0,0,1003.5,1017.5
2019-11-04T01:12:00+09:00,1.6,�k�k��,3.9,�k��,12.5,95.8,0,0,0,0,0,0,1003.5,1017.5
2019-11-04T01:13:00+09:00,1.7,�k�k��,4.3,�k��,12.5,95.7,0,0,0,0,0,0,1003.5,1017.5
2019-11-04T01:14:00+09:00,1.8,�k�k��,4.3,�k��,12.4,95.2,0,0,0,0,0,0,1003.5,1017.5
2019-11-04T01:15:00+09:00,1.8,�k�k��,4.3,�k��,12.4,95,0,0,0,0,0,0,1003.6,1017.6
2019-11-04T01:16:00+09:00,2,�k�k��,4.3,�k��,12.4,94.9,0,0,0,0,0,0,1003.6,1017.6
2019-11-04T01:17:00+09:00,2.3,�k�k��,5.3,�k�k��,12.5,95,0,0,0,0,0,0,1003.6,1017.6
2019-11-04T01:18:00+09:00,2.7,�k�k��,5.3,�k�k��,12.6,95.2,0,0,0,0,0,0,1003.5,1017.5
2019-11-04T01:19:00+09:00,2.9,�k�k��,5.3,�k�k��,12.8,95.4,0,0,0,0,0,0,1003.5,1017.5
2019-11-04T01:20:00+09:00,3,�k�k��,5.3,�k�k��,12.7,94.9,0,0,0,0,0,0,1003.6,1017.6
2019-11-04T01:21:00+09:00,3.1,�k�k��,5.3,�k�k��,12.8,94.2,0,0,0,0,0,0,1003.5,1017.5
2019-11-04T01:22:00+09:00,3,�k�k��,5.3,�k�k��,12.8,93.3,0,0,0,0,0,0,1003.5,1017.5
2019-11-04T01:23:00+09:00,3,�k�k��,5.3,�k�k��,12.9,92.7,0,0,0,0,0,0,1003.6,1017.6
2019-11-04T01:24:00+09:00,3,�k�k��,5.3,�k�k��,13,92.6,0,0,0,0,0,0,1003.6,1017.6
2019-11-04T01:25:00+09:00,3.1,�k�k��,5.3,�k�k��,13.1,92.2,0,0,0,0,0,0,1003.6,1017.6
2019-11-04T01:26:00+09:00,3,�k,5.3,�k�k��,13.1,91.8,0,0,0,0,0,0,1003.6,1017.6
2019-11-04T01:27:00+09:00,2.8,�k,4.7,�k�k��,13.1,90.8,0,0,0,0,0,0,1003.6,1017.6
2019-11-04T01:28:00+09:00,2.8,�k,4.8,�k��,13.2,90.1,0,0,0,0,0,0,1003.6,1017.6
2019-11-04T01:29:00+09:00,2.9,�k,4.8,�k��,13.3,89.1,0,0,0,0,0,0,1003.6,1017.6
2019-11-04T01:30:00+09:00,3,�k,5.1,�k��,13.4,87.9,0,0,0,0,0,0,1003.6,1017.5
2019-11-04T01:31:00+09:00,3,�k�k��,5.7,�k��,13.4,87.1,0,0,0,0,0,0,1003.5,1017.4
2019-11-04T01:32:00+09:00,3.3,�k�k��,5.7,�k��,13.5,86.5,0,0,0,0,0,0,1003.5,1017.4
2019-11-04T01:33:00+09:00,3.3,�k�k��,5.7,�k��,13.7,85.6,0,0,0,0,0,0,1003.6,1017.5
2019-11-04T01:34:00+09:00,3.3,�k�k��,5.7,�k��,13.7,84.7,0,0,0,0,0,0,1003.6,1017.5
2019-11-04T01:35:00+09:00,3.3,�k�k��,5.7,�k��,13.7,84.4,0,0,0,0,0,0,1003.6,1017.5
2019-11-04T01:36:00+09:00,3.3,�k�k��,5.7,�k��,13.6,84.4,0,0,0,0,0,0,1003.6,1017.5
2019-11-04T01:37:00+09:00,3.3,�k�k��,5.7,�k��,13.6,84.4,0,0,0,0,0,0,1003.6,1017.5
2019-11-04T01:38:00+09:00,3.2,�k�k��,5.7,�k��,13.5,84.6,0,0,0,0,0,0,1003.7,1017.6
2019-11-04T01:39:00+09:00,3.1,�k�k��,5.7,�k��,13.5,85,0,0,0,0,0,0,1003.7,1017.6
2019-11-04T01:40:00+09:00,3.1,�k�k��,5.7,�k��,13.5,85.1,0,0,0,0,0,0,1003.7,1017.6
2019-11-04T01:41:00+09:00,3.1,�k�k��,5.5,�k��,13.6,84.8,0,0,0,0,0,0,1003.7,1017.6
2019-11-04T01:42:00+09:00,2.9,�k�k��,5.5,�k��,13.7,84.1,0,0,0,0,0,0,1003.7,1017.6
2019-11-04T01:43:00+09:00,3,�k�k��,5.5,�k��,13.7,83.7,0,0,0,0,0,0,1003.7,1017.6
2019-11-04T01:44:00+09:00,2.9,�k�k��,5.5,�k��,13.6,83.8,0,0,0,0,0,0,1003.8,1017.7
2019-11-04T01:45:00+09:00,2.9,�k�k��,5.5,�k��,13.7,83.9,0,0,0,0,0,0,1003.8,1017.7
2019-11-04T01:46:00+09:00,3,�k��,5.5,�k��,13.7,83.7,0,0,0,0,0,0,1003.7,1017.6
2019-11-04T01:47:00+09:00,3,�k��,5.5,�k��,13.7,83.4,0,0,0,0,0,0,1003.8,1017.7
2019-11-04T01:48:00+09:00,3,�k��,5.5,�k��,13.7,83.3,0,0,0,0,0,0,1003.7,1017.6
2019-11-04T01:49:00+09:00,3,�k��,5.5,�k��,13.7,83.5,0,0,0,0,0,0,1003.7,1017.6
2019-11-04T01:50:00+09:00,3.2,�k��,5.5,�k��,13.8,83.2,0,0,0,0,0,0,1003.7,1017.6
2019-11-04T01:51:00+09:00,3.1,�k��,5.5,�k��,13.8,82.3,0,0,0,0,0,0,1003.7,1017.6
2019-11-04T01:52:00+09:00,3,�k�k��,5.5,�k��,13.8,82.4,0,0,0,0,0,0,1003.7,1017.6
2019-11-04T01:53:00+09:00,2.8,�k�k��,5.2,�k��,13.9,82.4,0,0,0,0,0,0,1003.7,1017.6
2019-11-04T01:54:00+09:00,2.7,�k�k��,5.2,�k��,14,81.9,0,0,0,0,0,0,1003.7,1017.6
2019-11-04T01:55:00+09:00,2.6,�k�k��,5.2,�k��,14,81.2,0,0,0,0,0,0,1003.7,1017.6
2019-11-04T01:56:00+09:00,2.5,�k�k��,5.2,�k��,14,81.3,0,0,0,0,0,0,1003.7,1017.6
2019-11-04T01:57:00+09:00,2.5,�k�k��,5.2,�k��,14.1,81,0,0,0,0,0,0,1003.7,1017.6
2019-11-04T01:58:00+09:00,2.6,�k�k��,5.2,�k��,14.2,80.6,0,0,0,0,0,0,1003.7,1017.6
2019-11-04T01:59:00+09:00,2.4,�k,5.2,�k��,14,80.3,0,0,0,0,0,0,1003.7,1017.6
2019-11-04T02:00:00+09:00,2.1,�k,4.8,�k�k��,13.9,80.5,0,0,0,0,0,0,1003.7,1017.6
2019-11-04T02:01:00+09:00,2.1,�k,4.8,�k�k��,13.7,80.9,0,0,0,0,0,0,1003.7,1017.6
2019-11-04T02:02:00+09:00,2.2,�k,4.8,�k�k��,13.4,82.7,0,0,0,0,0,0,1003.7,1017.6
2019-11-04T02:03:00+09:00,2.3,�k�k��,4.8,�k�k��,13.1,84.5,0,0,0,0,0,0,1003.7,1017.7
2019-11-04T02:04:00+09:00,2.4,�k�k��,4.8,�k�k��,13.1,86.3,0,0,0,0,0,0,1003.7,1017.7
2019-11-04T02:05:00+09:00,2.4,�k�k��,4.8,�k�k��,13.1,88,0,0,0,0,0,0,1003.8,1017.8
2019-11-04T02:06:00+09:00,2.5,�k�k��,4.8,�k�k��,13,88.5,0,0,0,0,0,0,1003.8,1017.8
2019-11-04T02:07:00+09:00,2.6,�k��,4.8,�k�k��,13.1,88.8,0,0,0,0,0,0,1003.7,1017.7
2019-11-04T02:08:00+09:00,2.5,�k��,3.7,�k��,13,89.1,0,0,0,0,0,0,1003.7,1017.7
2019-11-04T02:09:00+09:00,2.7,�k��,3.7,�k��,13,89.7,0,0,0,0,0,0,1003.8,1017.8
2019-11-04T02:10:00+09:00,2.8,�k��,4.2,�k��,13,89.9,0,0,0,0,0,0,1003.8,1017.8
2019-11-04T02:11:00+09:00,2.9,�k��,4.2,�k��,13.1,89.9,0,0,0,0,0,0,1003.8,1017.8
2019-11-04T02:12:00+09:00,2.9,�k��,4.2,�k��,12.9,90,0,0,0,0,0,0,1003.8,1017.8
2019-11-04T02:13:00+09:00,2.9,�k��,4.2,�k��,12.9,89.9,0,0,0,0,0,0,1003.8,1017.8
2019-11-04T02:14:00+09:00,3,�k��,4.2,�k��,12.9,90.6,0,0,0,0,0,0,1003.8,1017.8
2019-11-04T02:15:00+09:00,2.9,�k��,4.2,�k��,12.8,90.5,0,0,0,0,0,0,1003.8,1017.8
2019-11-04T02:16:00+09:00,3,�k��,4.2,�k��,12.8,90.8,0,0,0,0,0,0,1003.7,1017.7
2019-11-04T02:17:00+09:00,3,�k�k��,4.2,�k��,12.8,91,0,0,0,0,0,0,1003.7,1017.7
2019-11-04T02:18:00+09:00,2.9,�k�k��,4.2,�k��,12.7,90.9,0,0,0,0,0,0,1003.7,1017.7
2019-11-04T02:19:00+09:00,2.9,�k�k��,4.2,�k��,12.8,91.5,0,0,0,0,0,0,1003.7,1017.7
2019-11-04T02:20:00+09:00,2.7,�k�k��,4.1,�k�k��,12.6,91.5,0,0,0,0,0,0,1003.7,1017.7
2019-11-04T02:21:00+09:00,2.6,�k�k��,4.1,�k�k��,12.7,91.3,0,0,0,0,0,0,1003.8,1017.8
2019-11-04T02:22:00+09:00,2.5,�k,4.1,�k�k��,12.8,91.1,0,0,0,0,0,0,1003.8,1017.8
2019-11-04T02:23:00+09:00,2.4,�k,4.1,�k�k��,12.9,90.7,0,0,0,0,0,0,1003.8,1017.8
2019-11-04T02:24:00+09:00,2.3,�k,4.1,�k�k��,13,90.1,0,0,0,0,0,0,1003.8,1017.8
2019-11-04T02:25:00+09:00,2.2,�k,4.1,�k�k��,13,89.2,0,0,0,0,0,0,1003.8,1017.8
2019-11-04T02:26:00+09:00,2.2,�k,4.1,�k�k��,13,88.6,0,0,0,0,0,0,1003.8,1017.8
2019-11-04T02:27:00+09:00,2.1,�k,3.9,�k,13.1,88.4,0,0,0,0,0,0,1003.8,1017.8
2019-11-04T02:28:00+09:00,2.1,�k,4.5,�k,13.1,87.8,0,0,0,0,0,0,1003.8,1017.8
2019-11-04T02:29:00+09:00,2.2,�k,4.9,�k�k��,13.2,87.5,0,0,0,0,0,0,1003.8,1017.8
2019-11-04T02:30:00+09:00,2.4,�k,5.2,�k�k��,13.3,87.1,0,0,0,0,0,0,1003.8,1017.8
2019-11-04T02:31:00+09:00,2.5,�k,5.2,�k�k��,13.3,86.9,0,0,0,0,0,0,1003.8,1017.8
2019-11-04T02:32:00+09:00,2.5,�k,5.2,�k�k��,13.1,85.9,0,0,0,0,0,0,1003.8,1017.8
2019-11-04T02:33:00+09:00,2.7,�k,5.2,�k�k��,13,86.1,0,0,0,0,0,0,1003.8,1017.8
2019-11-04T02:34:00+09:00,2.9,�k,5.7,�k�k��,13.1,86.5,0,0,0,0,0,0,1003.8,1017.8
2019-11-04T02:35:00+09:00,3.2,�k,5.7,�k�k��,13.1,87,0,0,0,0,0,0,1003.8,1017.8
2019-11-04T02:36:00+09:00,3.3,�k,5.7,�k�k��,13,86.8,0,0,0,0,0,0,1003.8,1017.8
2019-11-04T02:37:00+09:00,3.4,�k,5.7,�k�k��,12.9,87,0,0,0,0,0,0,1003.8,1017.8
2019-11-04T02:38:00+09:00,3.4,�k,5.7,�k�k��,12.8,87.1,0,0,0,0,0,0,1003.8,1017.8
2019-11-04T02:39:00+09:00,3.3,�k,5.7,�k�k��,12.9,88.1,0,0,0,0,0,0,1003.8,1017.8
2019-11-04T02:40:00+09:00,3.1,�k,5.7,�k�k��,13,88.2,0,0,0,0,0,0,1003.8,1017.8
2019-11-04T02:41:00+09:00,3,�k,5.7,�k�k��,12.9,87.9,0,0,0,0,0,0,1003.7,1017.7
2019-11-04T02:42:00+09:00,3,�k,5.7,�k�k��,12.9,87.8,0,0,0,0,0,0,1003.7,1017.7
2019-11-04T02:43:00+09:00,2.8,�k,5.7,�k�k��,12.8,87.9,0,0,0,0,0,0,1003.7,1017.7
2019-11-04T02:44:00+09:00,2.7,�k,5.4,�k,12.8,88.1,0,0,0,0,0,0,1003.7,1017.7
2019-11-04T02:45:00+09:00,2.4,�k,5.3,�k,12.9,88.3,0,0,0,0,0,0,1003.7,1017.7
2019-11-04T02:46:00+09:00,2.3,�k,5,�k,12.9,88.3,0,0,0,0,0,0,1003.7,1017.7
2019-11-04T02:47:00+09:00,2.4,�k,5,�k,12.8,88.2,0,0,0,0,0,0,1003.7,1017.7
2019-11-04T02:48:00+09:00,2.2,�k,4.6,�k�k��,12.7,88.2,0,0,0,0,0,0,1003.6,1017.6
2019-11-04T02:49:00+09:00,2.2,�k,4.6,�k�k��,12.6,88.4,0,0,0,0,0,0,1003.7,1017.7
2019-11-04T02:50:00+09:00,2.1,�k,4.6,�k�k��,12.6,88.9,0,0,0,0,0,0,1003.7,1017.7
2019-11-04T02:51:00+09:00,2.2,�k,4.6,�k�k��,12.6,89.5,0,0,0,0,0,0,1003.7,1017.7
2019-11-04T02:52:00+09:00,2.3,�k,4.6,�k�k��,12.6,89.6,0,0,0,0,0,0,1003.6,1017.6
2019-11-04T02:53:00+09:00,2.4,�k,4.6,�k�k��,12.6,89.8,0,0,0,0,0,0,1003.7,1017.7
2019-11-04T02:54:00+09:00,2.5,�k,4.6,�k�k��,12.6,89.5,0,0,0,0,0,0,1003.7,1017.7
2019-11-04T02:55:00+09:00,2.6,�k,4.6,�k�k��,12.6,90.1,0,0,0,0,0,0,1003.7,1017.7
2019-11-04T02:56:00+09:00,2.6,�k,4.5,�k�k��,12.6,89.9,0,0,0,0,0,0,1003.7,1017.7
2019-11-04T02:57:00+09:00,2.6,�k,4.4,�k�k��,12.6,90.4,0,0,0,0,0,0,1003.7,1017.7
2019-11-04T02:58:00+09:00,2.7,�k,4.4,�k�k��,12.6,90.5,0,0,0,0,0,0,1003.7,1017.7
2019-11-04T02:59:00+09:00,2.7,�k,4.4,�k�k��,12.6,90.3,0,0,0,0,0,0,1003.7,1017.7
2019-11-04T03:00:00+09:00,2.7,�k,4.4,�k�k��,12.5,90.1,0,0,0,0,0,0,1003.7,1017.7
2019-11-04T03:01:00+09:00,2.6,�k,4.4,�k�k��,12.4,90,0,0,0,0,0,0,1003.7,1017.7
2019-11-04T03:02:00+09:00,2.6,�k,4.4,�k�k��,12.5,90.5,0,0,0,0,0,0,1003.7,1017.7
2019-11-04T03:03:00+09:00,2.5,�k,4.4,�k�k��,12.4,90.5,0,0,0,0,0,0,1003.7,1017.7
2019-11-04T03:04:00+09:00,2.5,�k�k��,4.1,�k,12.4,90.9,0,0,0,0,0,0,1003.7,1017.7
2019-11-04T03:05:00+09:00,2.5,�k�k��,4.1,�k,12.4,91.3,0,0,0,0,0,0,1003.7,1017.7
2019-11-04T03:06:00+09:00,2.5,�k�k��,4.1,�k,12.3,91,0,0,0,0,0,0,1003.6,1017.6
2019-11-04T03:07:00+09:00,2.3,�k�k��,3.8,�k�k��,12.2,91,0,0,0,0,0,0,1003.6,1017.6
2019-11-04T03:08:00+09:00,2.2,�k�k��,3.8,�k�k��,12.3,91.4,0,0,0,0,0,0,1003.7,1017.7
2019-11-04T03:09:00+09:00,2.1,�k,3.8,�k�k��,12.3,91.7,0,0,0,0,0,0,1003.6,1017.6
2019-11-04T03:10:00+09:00,2.1,�k,3.8,�k�k��,12.2,91.6,0,0,0,0,0,0,1003.6,1017.6
2019-11-04T03:11:00+09:00,2.1,�k,3.8,�k�k��,12.2,91.6,0,0,0,0,0,0,1003.6,1017.6
2019-11-04T03:12:00+09:00,2,�k,3.9,�k��,12.2,91.8,0,0,0,0,0,0,1003.6,1017.6
2019-11-04T03:13:00+09:00,2,�k,3.9,�k��,12.3,92.1,0,0,0,0,0,0,1003.6,1017.6
2019-11-04T03:14:00+09:00,1.9,�k�k��,3.9,�k��,12.6,92.6,0,0,0,0,0,0,1003.6,1017.6
2019-11-04T03:15:00+09:00,1.8,�k�k��,3.9,�k��,12.6,91.5,0,0,0,0,0,0,1003.6,1017.6
2019-11-04T03:16:00+09:00,1.7,�k�k��,3.9,�k��,12.7,90.8,0,0,0,0,0,0,1003.6,1017.6
2019-11-04T03:17:00+09:00,1.8,�k�k��,3.9,�k��,12.7,90.2,0,0,0,0,0,0,1003.6,1017.6
2019-11-04T03:18:00+09:00,2,�k�k��,3.9,�k��,12.7,90,0,0,0,0,0,0,1003.6,1017.6
2019-11-04T03:19:00+09:00,2.1,�k�k��,3.9,�k��,12.6,90.1,0,0,0,0,0,0,1003.6,1017.6
2019-11-04T03:20:00+09:00,2.2,�k,3.9,�k��,12.5,89.7,0,0,0,0,0,0,1003.6,1017.6
2019-11-04T03:21:00+09:00,2.4,�k,4.5,�k,12.4,90.2,0,0,0,0,0,0,1003.6,1017.6
2019-11-04T03:22:00+09:00,2.4,�k,4.8,�k,12.5,91.1,0,0,0,0,0,0,1003.6,1017.6
2019-11-04T03:23:00+09:00,2.4,�k,4.8,�k,12.5,91.7,0,0,0,0,0,0,1003.5,1017.5
2019-11-04T03:24:00+09:00,2.5,�k,4.8,�k,12.4,91.4,0,0,0,0,0,0,1003.6,1017.6
2019-11-04T03:25:00+09:00,2.6,�k�k��,4.8,�k,12.4,91.2,0,0,0,0,0,0,1003.5,1017.5
2019-11-04T03:26:00+09:00,2.7,�k�k��,5.3,�k,12.3,91.2,0,0,0,0,0,0,1003.5,1017.5
2019-11-04T03:27:00+09:00,2.7,�k�k��,5.3,�k,12.4,91.8,0,0,0,0,0,0,1003.5,1017.5
2019-11-04T03:28:00+09:00,2.6,�k,5.3,�k,12.5,92.5,0,0,0,0,0,0,1003.5,1017.5
2019-11-04T03:29:00+09:00,2.6,�k,5.3,�k,12.6,92.4,0,0,0,0,0,0,1003.6,1017.6
2019-11-04T03:30:00+09:00,2.5,�k,5.3,�k,12.6,92,0,0,0,0,0,0,1003.6,1017.6
2019-11-04T03:31:00+09:00,2.4,�k,5.3,�k,12.7,91.8,0,0,0,0,0,0,1003.6,1017.6
2019-11-04T03:32:00+09:00,2.4,�k,5.3,�k,12.8,91.2,0,0,0,0,0,0,1003.6,1017.6
2019-11-04T03:33:00+09:00,2.2,�k,5.3,�k,13,90.7,0,0,0,0,0,0,1003.6,1017.6
2019-11-04T03:34:00+09:00,2.2,�k,5.3,�k,12.9,89.6,0,0,0,0,0,0,1003.6,1017.6
2019-11-04T03:35:00+09:00,2.2,�k,5.3,�k,12.9,89.4,0,0,0,0,0,0,1003.6,1017.6
2019-11-04T03:36:00+09:00,2.2,�k,4.4,�k�k��,12.9,89.3,0,0,0,0,0,0,1003.6,1017.6
2019-11-04T03:37:00+09:00,2.1,�k,4.4,�k�k��,13,89.3,0,0,0,0,0,0,1003.6,1017.6
2019-11-04T03:38:00+09:00,2.1,�k,4.4,�k�k��,12.9,89.1,0,0,0,0,0,0,1003.6,1017.6
2019-11-04T03:39:00+09:00,2,�k,4.3,�k�k��,13,89,0,0,0,0,0,0,1003.6,1017.6
2019-11-04T03:40:00+09:00,2.1,�k,4.3,�k�k��,13.1,88.9,0,0,0,0,0,0,1003.6,1017.6
2019-11-04T03:41:00+09:00,2.1,�k,5.4,�k��,13.4,88.6,0,0,0,0,0,0,1003.6,1017.5
2019-11-04T03:42:00+09:00,2.1,�k,5.4,�k��,13.5,87.2,0,0,0,0,0,0,1003.6,1017.5
2019-11-04T03:43:00+09:00,2.2,�k�k��,5.4,�k��,13.6,86.1,0,0,0,0,0,0,1003.6,1017.5
2019-11-04T03:44:00+09:00,2.3,�k�k��,5.4,�k��,13.5,85.7,0,0,0,0,0,0,1003.6,1017.5
2019-11-04T03:45:00+09:00,2.3,�k,5.4,�k��,13.3,85.7,0,0,0,0,0,0,1003.7,1017.7
2019-11-04T03:46:00+09:00,2.3,�k,5.4,�k��,13.4,86.1,0,0,0,0,0,0,1003.7,1017.6
2019-11-04T03:47:00+09:00,2.3,�k,5.4,�k��,13.4,86.1,0,0,0,0,0,0,1003.7,1017.6
2019-11-04T03:48:00+09:00,2.4,�k,5.4,�k��,13.5,85.9,0,0,0,0,0,0,1003.7,1017.6
2019-11-04T03:49:00+09:00,2.5,�k,5.4,�k��,13.6,86.2,0,0,0,0,0,0,1003.7,1017.6
2019-11-04T03:50:00+09:00,2.6,�k,5.4,�k��,13.5,86,0,0,0,0,0,0,1003.8,1017.7
2019-11-04T03:51:00+09:00,2.7,�k,5.6,�k,13.4,86,0,0,0,0,0,0,1003.8,1017.7
2019-11-04T03:52:00+09:00,2.8,�k,5.6,�k,13.4,86.3,0,0,0,0,0,0,1003.8,1017.7
2019-11-04T03:53:00+09:00,2.8,�k,6,�k�k��,13.4,86.4,0,0,0,0,0,0,1003.8,1017.7
2019-11-04T03:54:00+09:00,2.8,�k,6,�k�k��,13.3,86.3,0,0,0,0,0,0,1003.8,1017.8
2019-11-04T03:55:00+09:00,2.9,�k,6.1,�k��,13.4,86.4,0,0,0,0,0,0,1003.8,1017.7
2019-11-04T03:56:00+09:00,2.9,�k,6.1,�k��,13.6,85.8,0,0,0,0,0,0,1003.8,1017.7
2019-11-04T03:57:00+09:00,2.9,�k,6.1,�k��,13.6,85.3,0,0,0,0,0,0,1003.8,1017.7
2019-11-04T03:58:00+09:00,2.8,�k,6.1,�k��,13.5,85.5,0,0,0,0,0,0,1003.8,1017.7
2019-11-04T03:59:00+09:00,2.6,�k,6.1,�k��,13.5,85.8,0,0,0,0,0,0,1003.8,1017.7
2019-11-04T04:00:00+09:00,2.5,�k,6.1,�k��,13.4,86,0,0,0,0,0,0,1003.8,1017.7
2019-11-04T04:01:00+09:00,2.4,�k�k��,6.1,�k��,13.4,86.2,0,0,0,0,0,0,1003.8,1017.7
2019-11-04T04:02:00+09:00,2.3,�k�k��,6.1,�k��,13.5,86.1,0,0,0,0,0,0,1003.8,1017.7
2019-11-04T04:03:00+09:00,2.1,�k�k��,6.1,�k��,13.5,85.9,0,0,0,0,0,0,1003.8,1017.7
2019-11-04T04:04:00+09:00,2.2,�k�k��,6.1,�k��,13.5,86,0,0,0,0,0,0,1003.8,1017.7
2019-11-04T04:05:00+09:00,2.1,�k�k��,5.1,�k��,13.5,85.7,0,0,0,0,0,0,1003.8,1017.7
2019-11-04T04:06:00+09:00,2.1,�k�k��,5.1,�k��,13.6,85.6,0,0,0,0,0,0,1003.8,1017.7
2019-11-04T04:07:00+09:00,2,�k�k��,5.1,�k��,13.6,85.7,0,0,0,0,0,0,1003.8,1017.7
2019-11-04T04:08:00+09:00,2.1,�k�k��,5.1,�k��,13.6,85.6,0,0,0,0,0,0,1003.7,1017.6
2019-11-04T04:09:00+09:00,2.2,�k�k��,5.1,�k��,13.6,85.7,0,0,0,0,0,0,1003.7,1017.6
2019-11-04T04:10:00+09:00,2.3,�k�k��,5.1,�k��,13.6,85.9,0,0,0,0,0,0,1003.7,1017.6
2019-11-04T04:11:00+09:00,2.3,�k,5.1,�k��,13.6,86.1,0,0,0,0,0,0,1003.7,1017.6
2019-11-04T04:12:00+09:00,2.4,�k,5.1,�k��,13.6,86.4,0,0,0,0,0,0,1003.7,1017.6
2019-11-04T04:13:00+09:00,2.5,�k,5.1,�k��,13.5,86.2,0,0,0,0,0,0,1003.7,1017.6
2019-11-04T04:14:00+09:00,2.4,�k,5.1,�k,13.5,86.2,0,0,0,0,0,0,1003.7,1017.6
2019-11-04T04:15:00+09:00,2.4,�k,5.1,�k,13.5,86.3,0,0,0,0,0,0,1003.7,1017.6
2019-11-04T04:16:00+09:00,2.5,�k,5.1,�k,13.5,86.4,0,0,0,0,0,0,1003.7,1017.6
2019-11-04T04:17:00+09:00,2.6,�k,5.1,�k,13.6,86.2,0,0,0,0,0,0,1003.7,1017.6
2019-11-04T04:18:00+09:00,2.6,�k,5.1,�k,13.5,86.3,0,0,0,0,0,0,1003.7,1017.6
2019-11-04T04:19:00+09:00,2.7,�k,5.1,�k,13.5,86.1,0,0,0,0,0,0,1003.7,1017.6
2019-11-04T04:20:00+09:00,2.6,�k,4.9,���k��,13.6,85.8,0,0,0,0,0,0,1003.7,1017.6
2019-11-04T04:21:00+09:00,2.6,�k,4.9,���k��,13.6,85.4,0,0,0,0,0,0,1003.8,1017.7
2019-11-04T04:22:00+09:00,2.6,�k�k��,4.9,���k��,13.6,85.3,0,0,0,0,0,0,1003.8,1017.7
2019-11-04T04:23:00+09:00,2.6,�k�k��,5.7,�k�k��,13.7,85.2,0,0,0,0,0,0,1003.8,1017.7
2019-11-04T04:24:00+09:00,2.7,�k,5.8,�k�k��,13.8,84.8,0,0,0,0,0,0,1003.8,1017.7
2019-11-04T04:25:00+09:00,2.6,�k�k��,5.8,�k�k��,13.7,84.4,0,0,0,0,0,0,1003.8,1017.7
2019-11-04T04:26:00+09:00,2.6,�k�k��,5.8,�k�k��,13.7,84.3,0,0,0,0,0,0,1003.8,1017.7
2019-11-04T04:27:00+09:00,2.6,�k�k��,5.8,�k�k��,13.8,84.3,0,0,0,0,0,0,1003.8,1017.7
2019-11-04T04:28:00+09:00,2.6,�k�k��,5.8,�k�k��,13.7,84.2,0,0,0,0,0,0,1003.9,1017.8
2019-11-04T04:29:00+09:00,2.5,�k�k��,5.8,�k�k��,13.7,84.1,0,0,0,0,0,0,1003.9,1017.8
2019-11-04T04:30:00+09:00,2.5,�k�k��,5.8,�k�k��,13.9,83.6,0,0,0,0,0,0,1003.9,1017.8
2019-11-04T04:31:00+09:00,2.5,�k�k��,5.8,�k�k��,13.9,83,0,0,0,0,0,0,1004,1017.9
2019-11-04T04:32:00+09:00,2.5,�k�k��,5.8,�k�k��,13.9,82.8,0,0,0,0,0,0,1004,1017.9
2019-11-04T04:33:00+09:00,2.4,�k�k��,5.8,�k�k��,13.9,82.9,0,0,0,0,0,0,1004,1017.9
2019-11-04T04:34:00+09:00,2.5,�k�k��,4.9,�k,13.8,82.7,0,0,0,0,0,0,1003.9,1017.8
2019-11-04T04:35:00+09:00,2.6,�k�k��,4.9,�k,13.9,82.6,0,0,0,0,0,0,1004,1017.9
2019-11-04T04:36:00+09:00,2.6,�k�k��,4.9,�k,13.9,82.4,0,0,0,0,0,0,1004,1017.9
2019-11-04T04:37:00+09:00,2.6,�k��,4.9,�k,13.9,82.3,0,0,0,0,0,0,1004,1017.9
2019-11-04T04:38:00+09:00,2.7,�k��,6,���k��,13.9,82.2,0,0,0,0,0,0,1004,1017.9
2019-11-04T04:39:00+09:00,2.7,�k��,6,���k��,13.9,81.7,0,0,0,0,0,0,1004.1,1018
2019-11-04T04:40:00+09:00,2.9,�k��,6,���k��,13.9,81.7,0,0,0,0,0,0,1004,1017.9
2019-11-04T04:41:00+09:00,3,�k��,6,���k��,13.9,81.4,0,0,0,0,0,0,1004.1,1018
2019-11-04T04:42:00+09:00,3.3,�k��,7.5,�k��,13.9,81.5,0,0,0,0,0,0,1004,1017.9
2019-11-04T04:43:00+09:00,3.5,�k��,7.5,�k��,13.9,81.2,0,0,0,0,0,0,1004,1017.9
2019-11-04T04:44:00+09:00,3.7,�k��,7.5,�k��,13.9,80.8,0,0,0,0,0,0,1004,1017.9
2019-11-04T04:45:00+09:00,3.8,�k��,7.5,�k��,14,80.3,0,0,0,0,0,0,1004,1017.9
2019-11-04T04:46:00+09:00,3.9,�k��,7.5,�k��,13.9,80.3,0,0,0,0,0,0,1004.1,1018
2019-11-04T04:47:00+09:00,4,�k��,7.5,�k��,13.9,80.7,0,0,0,0,0,0,1004.1,1018
2019-11-04T04:48:00+09:00,4,�k��,7.5,�k��,13.8,80.9,0,0,0,0,0,0,1004.1,1018
2019-11-04T04:49:00+09:00,4,�k��,7.5,�k��,13.8,81.1,0,0,0,0,0,0,1004.1,1018
2019-11-04T04:50:00+09:00,3.9,�k��,7.5,�k��,13.9,81.2,0,0,0,0,0,0,1004.1,1018
2019-11-04T04:51:00+09:00,4,�k��,7.5,�k��,13.9,80.7,0,0,0,0,0,0,1004.1,1018
2019-11-04T04:52:00+09:00,3.9,�k��,7.3,�k��,14,79.9,0,0,0,0,0,0,1004.1,1018
2019-11-04T04:53:00+09:00,3.8,�k��,7.3,�k��,13.9,79.8,0,0,0,0,0,0,1004.1,1018
2019-11-04T04:54:00+09:00,3.7,�k��,6.5,�k��,14,79.8,0,0,0,0,0,0,1004.1,1018
2019-11-04T04:55:00+09:00,3.5,�k��,6.5,�k��,14,79.3,0,0,0,0,0,0,1004.1,1018
2019-11-04T04:56:00+09:00,3.4,�k��,6.5,�k��,13.9,79.8,0,0,0,0,0,0,1004.1,1018
2019-11-04T04:57:00+09:00,3.3,�k��,6.5,�k��,13.8,80.6,0,0,0,0,0,0,1004.2,1018.1